STARLINK-5019, 55407

Orbit data source: Space-Track

STARLINK-5019, 55407 is a payload satellite owned by SpaceX/Seattle (US) in LEO that was launched on Tue, 31 Jan 2023 UTC via an FALCON 9 launch vehicle from the Air Force Western Test Range (AFWTR). Payload-class satellites include a variety of spacecraft equipped with specific instruments for various scientific and technological missions. These include communications satellites like Starlink; space stations such as the ISS; scientific satellites like the Hubble; Earth observation satellites from companies like Planet Labs, Umbra, and HawkEye 360; GPS; miniature CubeSats for education and research; and military/defense satellites.

Loading next visibility...
Identifier
55407, 2023-014S
Orbit
LEO
Country
Flag of USUS
Related business
Manufacturer
SpaceX/Seattle
Mission
Operational Commercial Communications
Bus & Motor
STARLINK, Unknown motor
Mass
305 kg wet, ~290 kg dry
Launch date (UTC)
2023-01-31 (3 years ago)
Launch vehicle
FALCON 9
Launch site
Air Force Western Test Range (AFWTR)
Object type
Payload
Rocket body
Debris
Shape & HBR
Box + 1 Pan, 10.1 m
Radar Cross Section
13.562 m², Large (>1 m²)

Expand to show TLE details & history
Last TLE update: 2 days ago

TLE from 2 days ago
0 STARLINK-5019
1 55407U 23014S   26171.30260649  .00000500  00000-0  49672-4 0  9995
2 55407  69.9996 165.8191 0002616 267.3805  92.7054 14.98320183187426
Epoch: 2026-06-20T07:15Z
TLE epoch observation values (Epoch: 2026-06-20T07:15:45.200Z)
Latitude
-0.0001°
Longitude
148.36156°
Altitude
574.596 km
Speed
7.574 km/s
True Right ascension
11h 03m 16s
True Declination
0° 00' 00"
Sunlit
Object was in daylight at epoch
Visualization orbit readout
Latitude
Unknown
Longitude
Unknown
Altitude
Unknown
Speed
Unknown
Apparent Right ascension
Unknown
Apparent Declination
Unknown
Sunlit
N/A
Visualization observer readout
Local Sidereal Time
21:28:55
Azimuth
Unknown
Elevation
Unknown
Doppler factor
Unknown
Orbital elements
Apogee altitude
571.852 km
Perigee altitude
568.217 km
Semi-major axis
6,948.172 km
Eccentricity
0.00026
Inclination
69.9996°
RAAN
165.8191°
Arg. of periapsis
267.3805°
True anomaly
92.73534°
Mean anomaly
92.7054°
Eccentric anomaly
92.72037°
Mean motion
3.74746 °/min
Orbital period
96.06 mins
BSTAR
0.000049672
Loading maneuver chart data...
Computing Atmospheric mass density...

Documentation

Showing up to 5 results
|